EW6866 Weather Reports


time (UTC)temp
C
wind
direction
speed
KPH
gust
KPH
rain 1hr
cm
rain 24hr
cm
rain mn
cm
humidity
%
barometer
mb
20260901224526 31 281 0.0 1.6 0.00 0.00 0.00 76 1014.9
20260901223006 32 272 0.0 1.6 0.00 0.00 0.00 75 1014.8
20260901221504 32 229 0.0 1.6 0.00 0.00 0.00 74 1014.7
20260901220004 32 210 0.0 1.6 0.00 0.00 0.00 72 1014.8
20260901214505 33 204 0.0 1.6 0.00 0.00 0.00 68 1014.8
20260901213004 33 166 0.0 3.2 0.00 0.00 0.00 64 1014.7
20260901211504 34 237 0.0 6.4 0.00 0.00 0.00 62 1014.7
20260901210004 35 160 1.6 4.8 0.00 0.00 0.00 61 1014.6
20260901204504 35 253 0.0 8.0 0.00 0.00 0.00 61 1014.7
20260901203004 35 218 0.0 4.8 0.00 0.00 0.00 59 1014.8
20260901201504 35 204 0.0 3.2 0.00 0.00 0.00 58 1014.9
20260901200004 35 262 1.6 6.4 0.00 0.00 0.00 60 1015.0
20260901194504 35 158 0.0 8.0 0.00 0.00 0.00 60 1015.1
20260901193005 35 167 0.0 4.8 0.00 0.00 0.00 58 1015.2
20260901191504 35 175 1.6 8.0 0.00 0.00 0.00 60 1015.3
20260901190004 35 178 1.6 8.0 0.00 0.00 0.00 60 1015.3
20260901184505 35 156 0.0 8.0 0.00 0.00 0.00 60 1015.4
20260901183004 35 214 0.0 8.0 0.00 0.00 0.00 63 1015.6
20260901181504 35 202 1.6 8.0 0.00 0.00 0.00 63 1015.5
20260901180005 35 227 0.0 3.2 0.00 0.00 0.00 63 1015.7
20260901174525 34 231 1.6 6.4 0.00 0.00 0.00 64 1015.7
20260901173004 34 185 1.6 8.0 0.00 0.00 0.00 64 1015.8
20260901171504 34 158 1.6 8.0 0.00 0.00 0.00 63 1015.9
20260901170004 34 166 0.0 6.4 0.00 0.00 0.00 65 1016.0
20260901164504 33 128 0.0 1.6 0.00 0.00 0.00 67 1016.1
20260901163004 33 167 1.6 3.2 0.00 0.00 0.00 68 1016.3
20260901161504 33 141 0.0 3.2 0.00 0.00 0.00 66 1016.6
20260901160004 33 139 0.0 4.8 0.00 0.00 0.00 66 1016.8
20260901154504 33 167 0.0 6.4 0.00 0.00 0.00 70 1017.0
20260901153004 32 138 0.0 6.4 0.00 0.00 0.00 70 1017.2
20260901151504 32 156 0.0 8.0 0.00 0.00 0.00 73 1017.2
20260901150004 31 169 0.0 6.4 0.00 0.00 0.00 74 1017.3
20260901144504 30 148 1.6 6.4 0.00 0.00 0.00 75 1017.2
20260901143004 30 149 0.0 3.2 0.00 0.00 0.00 79 1017.2
20260901141504 29 157 0.0 4.8 0.00 0.00 0.00 81 1017.2
20260901140004 28 164 0.0 6.4 0.00 0.00 0.00 83 1017.1
20260901134504 28 156 0.0 4.8 0.00 0.00 0.00 85 1017.3
20260901133004 27 175 0.0 3.2 0.00 0.00 0.00 87 1017.3
20260901131525 27 183 0.0 6.4 0.00 0.00 0.00 89 1017.4
20260901130003 26 157 0.0 1.6 0.00 0.00 0.00 92 1017.4
20260901124525 26 187 0.0 3.2 0.00 0.00 0.00 95 1017.3
20260901123004 25 157 0.0 1.6 0.00 0.00 0.00 98 1017.2
20260901121504 25 132 0.0 1.6 0.00 0.00 0.00 99 1017.2
20260901120004 24 0 0.0 0.0 0.00 0.00 0.00 99 1017.0
20260901114503 23 0 0.0 0.0 0.00 0.00 0.00 99 1017.0
20260901113004 23 0 0.0 0.0 0.00 0.00 0.00 98 1016.8
20260901111504 23 0 0.0 0.0 0.00 0.00 0.00 98 1016.7
20260901110003 23 0 0.0 0.0 0.00 0.00 0.00 98 1016.6
20260901104503 23 0 0.0 0.0 0.00 0.00 0.00 98 1016.6
20260901103004 23 0 0.0 0.0 0.00 0.00 0.00 97 1016.4
20260901101504 23 0 0.0 0.0 0.00 0.00 0.00 98 1016.4
20260901100024 23 0 0.0 0.0 0.00 0.00 0.00 98 1016.4
20260901094504 23 0 0.0 0.0 0.00 0.00 0.00 97 1016.4
20260901093004 23 0 0.0 0.0 0.00 0.00 0.00 97 1016.5
20260901091503 23 0 0.0 0.0 0.00 0.00 0.00 97 1016.5
20260901090003 23 0 0.0 0.0 0.00 0.00 0.00 97 1016.6
20260901084504 23 0 0.0 0.0 0.00 0.00 0.00 97 1016.6
20260901083003 23 0 0.0 0.0 0.00 0.00 0.00 97 1016.6
20260901081503 23 0 0.0 0.0 0.00 0.00 0.00 97 1016.8
20260901080003 23 0 0.0 0.0 0.00 0.00 0.00 97 1016.8
20260901074527 23 0 0.0 0.0 0.00 0.00 0.00 96 1016.9
20260901073005 23 0 0.0 0.0 0.00 0.00 0.00 96 1017.0
20260901071526 23 0 0.0 0.0 0.00 0.00 0.00 96 1017.1
20260901070027 23 0 0.0 0.0 0.00 0.00 0.00 96 1017.2
20260901064526 23 0 0.0 0.0 0.00 0.00 0.00 96 1017.3
20260901063026 24 0 0.0 0.0 0.00 0.00 0.00 95 1017.2
20260901061505 24 0 0.0 0.0 0.00 0.00 0.00 95 1017.3
20260901060005 24 0 0.0 0.0 0.00 0.00 0.00 95 1017.5
20260901054505 24 0 0.0 0.0 0.00 0.00 0.00 95 1017.6
20260901053005 24 0 0.0 0.0 0.00 0.00 0.00 94 1017.7
20260901051526 24 0 0.0 0.0 0.00 0.00 0.00 94 1017.6
20260901050026 25 0 0.0 0.0 0.00 0.00 0.00 94 1017.7
20260901044506 25 0 0.0 0.0 0.00 0.00 0.00 93 1017.5
20260901043005 25 0 0.0 0.0 0.00 0.00 0.00 92 1017.5
20260901041505 25 0 0.0 0.0 0.00 0.00 0.00 92 1017.5
20260901040007 25 0 0.0 0.0 0.00 0.00 0.00 91 1017.5
20260901034505 25 0 0.0 0.0 0.00 0.00 0.00 90 1017.4
20260901033005 26 224 0.0 1.6 0.00 0.00 0.00 89 1017.4
20260901031505 26 153 0.0 3.2 0.00 0.00 0.00 88 1017.5
20260901030005 26 238 0.0 1.6 0.00 0.00 0.00 87 1017.4
20260901024505 26 265 0.0 4.8 0.00 0.00 0.00 86 1017.7
20260901023026 26 270 0.0 3.2 0.00 0.00 0.00 86 1017.6
20260901021504 27 262 0.0 1.6 0.00 0.00 0.00 86 1017.6
20260901020005 27 256 0.0 3.2 0.00 0.00 0.00 85 1017.6
20260901014526 27 241 0.0 6.4 0.00 0.00 0.00 85 1017.5
20260901013005 27 256 0.0 1.6 0.00 0.00 0.00 85 1017.4
20260901011505 27 252 0.0 4.8 0.00 0.00 0.00 84 1017.3
20260901010004 27 280 0.0 4.8 0.00 0.00 0.00 84 1017.2
20260901004505 27 164 0.0 4.8 0.00 0.00 0.00 86 1017.0
20260901003004 27 265 0.0 1.6 0.00 0.00 0.00 86 1016.9
20260901001505 27 267 0.0 1.6 0.00 0.00 0.00 88 1016.8
20260901000004 27 0 0.0 0.0 0.00 0.00 0.00 87 1016.6
20260831234505 27 0 0.0 0.0 0.00 0.00 0.00 86 1016.7
20260831233004 28 0 0.0 0.0 0.00 0.00 0.00 83 1016.6
20260831231525 28 0 0.0 0.0 0.00 0.00 0.00 82 1016.7
20260831230005 28 0 0.0 0.0 0.00 0.00 0.00 80 1016.7